| time (UTC) | temp F | wind direction | speed MPH | gust MPH | rain 1hr in | rain 24hr in | rain mn in | humidity % | barometer mb |
| 20260505172555 | 71 | 154 | 3.0 | 8.0 | 0.00 | 0.00 | 0.00 | 40 | 1005.3 |
| 20260505171555 | 70 | 147 | 5.0 | 9.0 | 0.00 | 0.00 | 0.00 | 42 | 1005.3 |
| 20260505170615 | 70 | 224 | 3.0 | 7.0 | 0.00 | 0.00 | 0.00 | 42 | 1005.2 |
| 20260505165555 | 69 | 231 | 3.0 | 8.0 | 0.00 | 0.00 | 0.00 | 41 | 1005.1 |
| 20260505164615 | 69 | 189 | 3.0 | 10.0 | 0.00 | 0.00 | 0.00 | 42 | 1005.2 |
| 20260505163555 | 68 | 202 | 2.0 | 8.0 | 0.00 | 0.00 | 0.00 | 44 | 1005.1 |
| 20260505162554 | 68 | 162 | 4.0 | 10.0 | 0.00 | 0.00 | 0.00 | 43 | 1005.1 |
| 20260505161554 | 67 | 166 | 4.0 | 10.0 | 0.00 | 0.00 | 0.00 | 45 | 1005.1 |
| 20260505160554 | 67 | 146 | 2.0 | 10.0 | 0.00 | 0.00 | 0.00 | 44 | 1004.9 |
| 20260505152554 | 66 | 162 | 3.0 | 13.0 | 0.00 | 0.00 | 0.00 | 47 | 1004.8 |
| 20260505121552 | 53 | 135 | 2.0 | 5.0 | 0.00 | 0.00 | 0.00 | 70 | 1002.1 |
| 20260505120552 | 54 | 303 | 0.0 | 0.0 | 0.00 | 0.00 | 0.00 | 67 | 1001.8 |
| 20260505115552 | 54 | 303 | 1.0 | 2.0 | 0.00 | 0.00 | 0.00 | 66 | 1001.6 |
| 20260505114552 | 55 | 303 | 1.0 | 2.0 | 0.00 | 0.00 | 0.00 | 66 | 1001.6 |
| 20260505113552 | 55 | 303 | 0.0 | 2.0 | 0.00 | 0.00 | 0.00 | 64 | 1001.4 |
| 20260505112551 | 56 | 303 | 2.0 | 3.0 | 0.00 | 0.00 | 0.00 | 63 | 1001.4 |
| 20260505111552 | 57 | 303 | 0.0 | 2.0 | 0.00 | 0.00 | 0.00 | 61 | 1001.3 |
| 20260505110551 | 58 | 303 | 1.0 | 2.0 | 0.00 | 0.00 | 0.00 | 60 | 1001.2 |
| 20260505041548 | 70 | 307 | 3.0 | 8.0 | 0.00 | 0.00 | 0.00 | 45 | 998.6 |
| 20260505014546 | 80 | 293 | 3.0 | 11.0 | 0.00 | 0.00 | 0.00 | 33 | 997.5 |
| 20260505013546 | 80 | 286 | 5.0 | 11.0 | 0.00 | 0.00 | 0.00 | 33 | 997.6 |
| 20260505012546 | 80 | 294 | 4.0 | 10.0 | 0.00 | 0.00 | 0.00 | 32 | 997.7 |
| 20260505011546 | 80 | 356 | 4.0 | 10.0 | 0.00 | 0.00 | 0.00 | 32 | 997.8 |
| 20260505010545 | 81 | 359 | 5.0 | 10.0 | 0.00 | 0.00 | 0.00 | 32 | 997.8 |
| 20260505005545 | 81 | 320 | 5.0 | 14.0 | 0.00 | 0.00 | 0.00 | 31 | 997.9 |
| 20260505004545 | 81 | 329 | 3.0 | 14.0 | 0.00 | 0.00 | 0.00 | 30 | 998.0 |
| 20260505003545 | 82 | 334 | 7.0 | 12.0 | 0.00 | 0.00 | 0.00 | 30 | 998.1 |
| 20260505002545 | 82 | 10 | 5.0 | 12.0 | 0.00 | 0.00 | 0.00 | 29 | 998.2 |
| 20260505001545 | 83 | 280 | 3.0 | 11.0 | 0.00 | 0.00 | 0.00 | 29 | 998.2 |
| 20260505000545 | 84 | 264 | 3.0 | 11.0 | 0.00 | 0.00 | 0.00 | 27 | 998.2 |
| 20260504235545 | 84 | 339 | 7.0 | 10.0 | 0.00 | 0.00 | 0.00 | 27 | 998.3 |
| 20260504234545 | 84 | 312 | 3.0 | 13.0 | 0.00 | 0.00 | 0.00 | 27 | 998.5 |
| 20260504233545 | 84 | 320 | 11.0 | 11.0 | 0.00 | 0.00 | 0.00 | 27 | 998.6 |
| 20260504232545 | 84 | 329 | 5.0 | 13.0 | 0.00 | 0.00 | 0.00 | 29 | 998.6 |
| 20260504231544 | 84 | 277 | 4.0 | 13.0 | 0.00 | 0.00 | 0.00 | 27 | 998.7 |
| 20260504201543 | 80 | 329 | 7.0 | 9.0 | 0.00 | 0.00 | 0.00 | 33 | 1001.1 |
| 20260504200543 | 80 | 283 | 3.0 | 9.0 | 0.00 | 0.00 | 0.00 | 36 | 1001.2 |
| 20260504195543 | 79 | 334 | 4.0 | 11.0 | 0.00 | 0.00 | 0.00 | 32 | 1001.4 |
| 20260504194543 | 80 | 314 | 5.0 | 10.0 | 0.00 | 0.00 | 0.00 | 37 | 1001.4 |